Weather reports worldwide

Advertisment
Threave, United Kingdom (99090): temperature & dewpoint: 23.04.2017 06:00:00 - 29.04.2017 06:00:00 (BST)Threave, United Kingdom (99090): temperature -20cm & temperature -100cm: 23.04.2017 06:00:00 - 29.04.2017 06:00:00 (BST)Threave, United Kingdom (99090): precipitation: 23.04.2017 06:00:00 - 29.04.2017 06:00:00 (BST)
Date & Time tt [°C] td [°C] tt -20cm [°C] tt -100cm [°C] rr [mm]
29.04.2017 06:00:00 - - - - 0,0
29.04.2017 05:00:00 7,9 5,8 - - 0,0
29.04.2017 04:00:00 7,9 5,9 - - 0,0
29.04.2017 03:00:00 7,6 5,7 - - 0,0
29.04.2017 02:00:00 7,2 5,4 - - 0,0
29.04.2017 01:00:00 7,1 5,2 - - 0,0
29.04.2017 00:00:00 7,0 4,6 - - 0,0
28.04.2017 23:00:00 7,1 4,5 - - 0,0
28.04.2017 22:00:00 7,7 4,4 - - 0,0
28.04.2017 21:00:00 8,0 4,4 - - 0,0
28.04.2017 20:00:00 8,5 4,0 - - 0,0
28.04.2017 19:00:00 9,8 5,3 - - 0,0
28.04.2017 18:00:00 10,4 5,6 - - 0,0
28.04.2017 17:00:00 10,5 5,9 - - 0,0
28.04.2017 16:00:00 10,7 4,5 - - 0,0
28.04.2017 15:00:00 11,3 4,8 - - 0,0
28.04.2017 14:00:00 10,9 4,8 - - 0,0
28.04.2017 13:00:00 10,3 3,7 - - 0,0
28.04.2017 12:00:00 10,1 4,1 - - 0,0
28.04.2017 11:00:00 10,6 2,3 - - 0,0
28.04.2017 10:00:00 9,4 4,8 9,4 9,0 0,0
28.04.2017 09:00:00 8,2 3,8 - - 0,0
28.04.2017 08:00:00 6,7 5,1 - - 0,0
28.04.2017 07:00:00 5,7 4,8 - - 0,0
28.04.2017 06:00:00 5,5 4,6 - - 0,0
28.04.2017 05:00:00 5,7 4,9 - - 0,0
28.04.2017 04:00:00 5,4 4,6 - - 0,0
28.04.2017 03:00:00 4,5 3,5 - - 0,0
28.04.2017 02:00:00 6,0 5,2 - - 0,0
28.04.2017 01:00:00 5,4 4,7 - - 0,0
28.04.2017 00:00:00 6,2 4,3 - - 0,0
27.04.2017 23:00:00 7,6 5,3 - - 0,0
27.04.2017 22:00:00 8,4 5,3 - - 0,0
27.04.2017 21:00:00 8,9 4,9 - - 0,0
27.04.2017 20:00:00 10,4 5,0 - - 0,0
27.04.2017 19:00:00 11,4 4,8 - - 0,0
27.04.2017 18:00:00 12,2 5,4 - - 0,0
27.04.2017 17:00:00 12,8 5,4 - - 0,0
27.04.2017 16:00:00 11,8 5,0 - - 0,0
27.04.2017 15:00:00 11,9 4,3 - - 0,0
27.04.2017 14:00:00 13,2 5,6 - - 0,0
27.04.2017 13:00:00 11,4 3,9 - - 0,0
27.04.2017 12:00:00 12,0 5,7 - - 0,0
27.04.2017 11:00:00 9,4 3,3 - - 0,0
27.04.2017 10:00:00 9,3 3,3 9,0 9,0 0,0
27.04.2017 09:00:00 8,4 4,4 - - 0,0
27.04.2017 08:00:00 7,6 5,2 - - 0,0
27.04.2017 07:00:00 5,9 5,0 - - 0,0
27.04.2017 06:00:00 5,3 4,2 - - 0,0
27.04.2017 05:00:00 4,6 3,3 - - 0,0
27.04.2017 04:00:00 4,3 3,0 - - 0,0
27.04.2017 03:00:00 3,7 2,3 - - 0,0
27.04.2017 02:00:00 2,8 1,6 - - 0,0
27.04.2017 01:00:00 3,0 1,5 - - 0,0
27.04.2017 00:00:00 3,0 1,2 - - 0,0
26.04.2017 23:00:00 2,9 0,5 - - 0,0
26.04.2017 22:00:00 4,1 0,3 - - 0,0
26.04.2017 21:00:00 6,2 0,5 - - 0,0
26.04.2017 20:00:00 7,2 0,0 - - 0,0
26.04.2017 19:00:00 7,5 -0,1 - - 0,0
26.04.2017 18:00:00 7,3 -0,4 - - 0,0
26.04.2017 17:00:00 7,1 -0,6 - - 0,0
26.04.2017 16:00:00 7,8 -2,1 - - 0,0
26.04.2017 15:00:00 8,3 -1,9 - - 0,0
26.04.2017 14:00:00 7,8 -3,6 - - 0,0
26.04.2017 13:00:00 7,9 -2,8 - - 0,0
26.04.2017 12:00:00 7,4 -3,5 - - 0,0
26.04.2017 11:00:00 8,0 -3,8 - - 0,0
26.04.2017 10:00:00 6,7 -3,3 9,2 9,0 0,0
26.04.2017 09:00:00 4,0 -1,9 - - 0,0
26.04.2017 08:00:00 0,5 -2,5 - - 0,0
26.04.2017 07:00:00 -1,2 -2,8 - - 0,0
26.04.2017 06:00:00 -2,1 -4,2 - - 0,0
26.04.2017 05:00:00 -0,8 -4,1 - - 0,0
26.04.2017 04:00:00 -1,4 -4,2 - - 0,0
26.04.2017 03:00:00 0,6 -3,3 - - 0,0
26.04.2017 02:00:00 0,1 -3,2 - - 0,0
26.04.2017 01:00:00 1,4 -3,0 - - 0,0
26.04.2017 00:00:00 1,8 -3,1 - - 0,0
25.04.2017 23:00:00 2,3 -3,3 - - 0,0
25.04.2017 22:00:00 3,5 -2,3 - - 0,0
25.04.2017 21:00:00 4,0 -1,3 - - 0,0
25.04.2017 20:00:00 6,5 -1,4 - - 0,0
25.04.2017 19:00:00 7,5 -0,4 - - 0,0
25.04.2017 18:00:00 7,9 -3,0 - - 0,0
25.04.2017 17:00:00 9,7 -2,4 - - 0,0
25.04.2017 16:00:00 9,4 0,1 - - 0,0
25.04.2017 15:00:00 8,8 -0,8 - - 0,0
25.04.2017 14:00:00 8,3 -1,7 - - 0,0
25.04.2017 13:00:00 8,8 -2,4 - - 0,0
25.04.2017 12:00:00 9,3 -1,4 - - 0,0
25.04.2017 11:00:00 6,5 -0,6 - - 0,0
25.04.2017 10:00:00 5,6 -0,6 9,7 9,0 0,0
25.04.2017 09:00:00 4,8 -0,8 - - 0,0
25.04.2017 08:00:00 2,8 -1,4 - - 0,0
25.04.2017 07:00:00 1,1 -2,4 - - 0,0
25.04.2017 06:00:00 -0,3 -3,8 - - 0,0
25.04.2017 05:00:00 -0,3 -3,8 - - 0,0
25.04.2017 04:00:00 -0,1 -3,3 - - 0,0
25.04.2017 03:00:00 1,0 -2,1 - - 0,0
25.04.2017 02:00:00 1,6 -0,3 - - 0,0
25.04.2017 01:00:00 1,6 0,0 - - 0,0
25.04.2017 00:00:00 1,9 0,2 - - 0,0
24.04.2017 23:00:00 1,8 0,5 - - 0,0
24.04.2017 22:00:00 1,9 -2,6 - - 0,0
24.04.2017 21:00:00 2,4 -4,0 - - 0,0
24.04.2017 20:00:00 4,2 -4,8 - - 0,0
24.04.2017 19:00:00 5,1 -3,4 - - 0,0
24.04.2017 18:00:00 6,0 -2,0 - - 0,0
24.04.2017 17:00:00 6,4 -5,0 - - 0,0
24.04.2017 16:00:00 6,8 -3,1 - - 0,0
24.04.2017 15:00:00 8,9 -3,8 - - 0,0
24.04.2017 14:00:00 7,2 -2,8 - - 0,0
24.04.2017 13:00:00 8,8 -2,0 - - 0,0
24.04.2017 12:00:00 8,0 1,2 - - 0,0
24.04.2017 11:00:00 7,3 2,5 - - 0,0
24.04.2017 10:00:00 7,9 0,7 10,2 9,0 0,0
24.04.2017 09:00:00 7,3 2,7 - - 0,0
24.04.2017 08:00:00 6,1 3,9 - - 0,0
24.04.2017 07:00:00 5,9 4,3 - - 0,8
24.04.2017 06:00:00 7,7 6,6 - - 0,2
24.04.2017 05:00:00 7,9 5,9 - - 0,0
24.04.2017 04:00:00 7,8 5,9 - - 0,0
24.04.2017 03:00:00 8,1 6,2 - - 0,0
24.04.2017 02:00:00 7,7 6,3 - - 0,0
24.04.2017 01:00:00 7,8 5,4 - - 0,0
24.04.2017 00:00:00 7,6 4,7 - - 0,0
23.04.2017 23:00:00 7,9 4,9 - - 0,0
23.04.2017 22:00:00 8,5 6,0 - - 0,0
23.04.2017 21:00:00 8,6 7,8 - - 0,0
23.04.2017 20:00:00 8,1 7,0 - - 0,0
23.04.2017 19:00:00 8,8 5,7 - - 0,0
23.04.2017 18:00:00 10,0 4,8 - - 0,0
23.04.2017 17:00:00 11,4 5,5 - - 0,0
23.04.2017 16:00:00 12,9 5,3 - - 0,0
23.04.2017 15:00:00 12,3 4,9 - - 0,0
23.04.2017 14:00:00 12,0 5,1 - - 0,0
23.04.2017 13:00:00 12,5 4,2 - - 0,0
23.04.2017 12:00:00 11,0 3,2 - - 0,0
23.04.2017 11:00:00 10,4 1,7 - - 0,0
23.04.2017 10:00:00 8,9 3,9 9,9 9,0 0,0
23.04.2017 09:00:00 6,2 4,5 - - 0,0
23.04.2017 08:00:00 2,5 2,4 - - 0,0
23.04.2017 07:00:00 1,0 0,8 - - 0,0
23.04.2017 06:00:00 1,0 0,8 - - 0,0

tt = temperature
td = dewpoint
tt -20cm = temperature -20cm
tt -100cm = temperature -100cm
rr = precipitation

Next stations